TimeEEST,TemperatureF,Dew PointF,Humidity,Sea Level PressureIn,VisibilityMPH,Wind Direction,Wind SpeedMPH,Gust SpeedMPH,PrecipitationIn,Events,Conditions,WindDirDegrees,DateUTC
12:20 AM,59.0,57.2,94,30.06,6.2,Variable,3.5,-,N/A,Rain,Light Rain Showers,0,2012-10-23 21:20:00
12:50 AM,57.2,57.2,100,30.06,6.2,SE,4.6,-,N/A,,Mostly Cloudy,130,2012-10-23 21:50:00
1:20 AM,57.2,55.4,94,30.06,6.2,SE,3.5,-,N/A,,Mostly Cloudy,140,2012-10-23 22:20:00
1:50 AM,59.0,57.2,94,30.04,6.2,South,11.5,-,N/A,,Mostly Cloudy,190,2012-10-23 22:50:00
2:20 AM,60.8,57.2,88,30.06,6.2,Variable,2.3,-,N/A,,Mostly Cloudy,0,2012-10-23 23:20:00
2:50 AM,60.8,57.2,88,30.06,6.2,Variable,1.2,-,N/A,,Mostly Cloudy,0,2012-10-23 23:50:00
3:00 AM,60,56,84,30.01,6,West,1.2,,,,Partly Cloudy,280,2012-10-24 00:00:00
3:20 AM,60.8,57.2,88,30.06,6.2,Variable,3.5,-,N/A,,Mostly Cloudy,0,2012-10-24 00:20:00
3:50 AM,60.8,57.2,88,30.06,6.2,South,8.1,-,N/A,,Mostly Cloudy,180,2012-10-24 00:50:00
4:20 AM,60.8,57.2,88,30.06,6.2,SW,10.4,-,N/A,,Mostly Cloudy,220,2012-10-24 01:20:00
4:50 AM,60.8,57.2,88,30.06,6.2,SSW,8.1,-,N/A,,Mostly Cloudy,200,2012-10-24 01:50:00
5:20 AM,60.8,57.2,88,30.06,6.2,South,9.2,-,N/A,,Mostly Cloudy,180,2012-10-24 02:20:00
5:50 AM,60.8,57.2,88,30.06,6.2,SSW,8.1,-,N/A,,Mostly Cloudy,200,2012-10-24 02:50:00
6:20 AM,59.0,57.2,94,30.06,6.2,Variable,2.3,-,N/A,,Mostly Cloudy,0,2012-10-24 03:20:00
6:50 AM,57.2,55.4,94,30.06,6.2,ESE,6.9,-,N/A,,Mostly Cloudy,110,2012-10-24 03:50:00
7:20 AM,57.2,55.4,94,30.06,6.2,ESE,5.8,-,N/A,,Mostly Cloudy,110,2012-10-24 04:20:00
7:50 AM,55.4,55.4,100,30.09,6.2,ESE,5.8,-,N/A,,Mostly Cloudy,110,2012-10-24 04:50:00
8:20 AM,57.2,57.2,100,30.09,6.2,ESE,5.8,-,N/A,,Mostly Cloudy,120,2012-10-24 05:20:00
8:50 AM,60.8,57.2,88,30.09,6.2,ESE,6.9,-,N/A,,Mostly Cloudy,110,2012-10-24 05:50:00
9:20 AM,62.6,59.0,88,30.09,6.2,East,4.6,-,N/A,,Mostly Cloudy,100,2012-10-24 06:20:00
9:50 AM,64.4,59.0,83,30.09,6.2,ESE,6.9,-,N/A,,Mostly Cloudy,110,2012-10-24 06:50:00
10:20 AM,59.0,53.6,82,30.09,6.2,NW,6.9,-,N/A,Thunderstorm,Thunderstorm,320,2012-10-24 07:20:00
10:50 AM,62.6,53.6,72,30.09,6.2,North,5.8,-,N/A,,Mostly Cloudy,360,2012-10-24 07:50:00
11:20 AM,62.6,55.4,77,30.09,6.2,ENE,6.9,-,N/A,,Mostly Cloudy,60,2012-10-24 08:20:00
11:50 AM,64.4,53.6,68,30.09,6.2,Variable,2.3,-,N/A,,Scattered Clouds,0,2012-10-24 08:50:00
12:20 PM,66.2,55.4,68,30.09,6.2,Variable,3.5,-,N/A,,Scattered Clouds,0,2012-10-24 09:20:00
12:50 PM,68.0,55.4,64,30.06,6.2,Variable,2.3,-,N/A,,Mostly Cloudy,0,2012-10-24 09:50:00
1:20 PM,68.0,57.2,68,30.06,6.2,Variable,2.3,-,N/A,,Mostly Cloudy,0,2012-10-24 10:20:00
1:50 PM,66.2,57.2,73,30.06,6.2,NE,4.6,-,N/A,,Mostly Cloudy,50,2012-10-24 10:50:00
2:20 PM,66.2,59.0,78,30.06,6.2,North,10.4,-,N/A,,Mostly Cloudy,360,2012-10-24 11:20:00
2:50 PM,66.2,57.2,73,30.06,6.2,NNE,8.1,-,N/A,,Mostly Cloudy,20,2012-10-24 11:50:00
3:00 PM,66,58,69,30.00,6,NNE,8.1,,,,Partly Cloudy,20,2012-10-24 12:00:00
3:20 PM,66.2,57.2,73,30.06,6.2,North,5.8,-,N/A,,Scattered Clouds,10,2012-10-24 12:20:00
3:50 PM,66.2,59.0,78,30.04,6.2,NE,5.8,-,N/A,,Mostly Cloudy,50,2012-10-24 12:50:00
4:20 PM,66.2,59.0,78,30.06,6.2,NE,5.8,-,N/A,,Mostly Cloudy,50,2012-10-24 13:20:00
4:50 PM,66.2,59.0,78,30.04,6.2,East,6.9,-,N/A,,Mostly Cloudy,80,2012-10-24 13:50:00
5:20 PM,64.4,57.2,77,30.04,6.2,ESE,13.8,-,N/A,Thunderstorm,Thunderstorm,110,2012-10-24 14:20:00
5:50 PM,62.6,57.2,82,30.04,6.2,ESE,9.2,-,N/A,Thunderstorm,Thunderstorm,120,2012-10-24 14:50:00
6:20 PM,60.8,57.2,88,30.06,6.2,Variable,2.3,-,N/A,Rain-Thunderstorm,Light Thunderstorms and Rain,0,2012-10-24 15:20:00
6:50 PM,60.8,57.2,88,30.06,6.2,East,9.2,-,N/A,Rain-Thunderstorm,Light Thunderstorms and Rain,100,2012-10-24 15:50:00
7:20 PM,60.8,57.2,88,30.04,6.2,ENE,10.4,-,N/A,Rain-Thunderstorm,Light Thunderstorms and Rain,70,2012-10-24 16:20:00
7:50 PM,60.8,57.2,88,30.04,6.2,NE,9.2,-,N/A,Rain-Thunderstorm,Light Thunderstorms and Rain,40,2012-10-24 16:50:00
8:20 PM,59.0,57.2,94,30.06,6.2,ENE,9.2,-,N/A,Rain-Thunderstorm,Light Thunderstorms and Rain,60,2012-10-24 17:20:00
8:50 PM,59.0,57.2,94,30.04,6.2,East,13.8,-,N/A,Rain-Thunderstorm,Light Thunderstorms and Rain,80,2012-10-24 17:50:00
9:00 PM,59,58,93,30.01,12,East,13.8,,,Rain-Thunderstorm,Thunderstorms and Rain,80,2012-10-24 18:00:00
9:20 PM,59.0,57.2,94,30.04,6.2,East,9.2,-,N/A,Thunderstorm,Thunderstorm,90,2012-10-24 18:20:00
9:50 PM,59.0,57.2,94,30.06,6.2,SE,6.9,-,N/A,,Mostly Cloudy,140,2012-10-24 18:50:00
10:20 PM,59.0,57.2,94,30.04,6.2,ESE,17.3,-,N/A,Rain,Light Rain Showers,120,2012-10-24 19:20:00
10:50 PM,57.2,57.2,100,30.06,6.2,ESE,11.5,-,N/A,Rain,Light Rain Showers,120,2012-10-24 19:50:00
11:20 PM,57.2,55.4,94,30.06,6.2,East,8.1,-,N/A,Rain,Light Rain Showers,90,2012-10-24 20:20:00
11:50 PM,57.2,55.4,94,30.09,6.2,East,9.2,-,N/A,Rain,Light Rain Showers,80,2012-10-24 20:50:00